Hagerstown, MD

10:15 PM EDT on April 22, 2018 (GMT -0400)
Hagerstown Regional-Henson

Weather History for KHGR - April, 2014

Change the Weather History Date:

Saturday, April 19, 2014

  Actual Average Record
Temperature  
Mean Temperature 53 °F 54 °F  
Max Temperature 66 °F 64 °F 88 °F (2002)
Min Temperature 40 °F 44 °F 30 °F (2001)
Degree Days  
Heating Degree Days 12 11  
Month to date heating degree days 260 274  
Since 1 July heating degree days 5134 4906  
Cooling Degree Days 0 1  
Month to date cooling degree days 10 1  
Year to date cooling degree days 10 2  
Growing Degree Days 2 (Base 50)    
Moisture  
Dew Point 31 °F    
Average Humidity 50    
Maximum Humidity 79    
Minimum Humidity 20    
Precipitation  
Precipitation 0.00 in 0.11 in 0.69 in (2011)
Month to date precipitation 1.09 2.33  
Year to date precipitation 6.54 10.94  
Sea Level Pressure  
Sea Level Pressure 30.31 in    
Wind  
Wind Speed 7 mph (NNE)    
Max Wind Speed 16 mph    
Max Gust Speed 21 mph    
Visibility 10 miles    
Events      
T = Trace of Precipitation, MM = Missing Value Source: NWS Daily Summary

Daily Weather History Graph

Daily Weather History Graph

Search for Another Location

Airport or City:

Astronomy

Apr. 19, 2014 Rise Set
Actual Time 6:27 AM EDT 7:53 PM EDT
Civil Twilight 5:59 AM EDT 8:21 PM EDT
Nautical Twilight 5:25 AM EDT 8:55 PM EDT
Astronomical Twilight 4:49 AM EDT 9:31 PM EDT
Moon No Moon Rise 9:44 AM EDT (4/19)
Length of Visible Light 14h 21m
Length of Day
13h 25m
Waning Gibbous, 79% of the Moon is Illuminated
Apr 19
Waning Gibbous
Apr 22
Last Quarter
Apr 29
New
May 6
First Quarter
May 14
Full

Hourly Weather History & Observations

Time (EDT) Temp. Windchill Dew Point Humidity Pressure Visibility Wind Dir Wind Speed Gust Speed Precip Events Conditions
12:53 AM 48.0 °F - 33.1 °F 56% 30.29 in 10.0 mi Calm Calm - N/A   Clear
1:53 AM 46.0 °F 44.8 °F 34.0 °F 63% 30.28 in 10.0 mi SSE 3.5 mph - N/A   Clear
2:53 AM 44.1 °F - 34.0 °F 68% 30.27 in 10.0 mi Calm Calm - N/A   Clear
3:53 AM 44.1 °F 42.5 °F 34.0 °F 68% 30.27 in 10.0 mi ENE 3.5 mph - N/A   Clear
5:53 AM 42.1 °F 39.2 °F 34.0 °F 73% 30.28 in 10.0 mi North 4.6 mph - N/A   Clear
6:53 AM 44.1 °F 41.5 °F 34.0 °F 68% 30.31 in 10.0 mi NNE 4.6 mph - N/A   Clear
7:53 AM 41.0 °F 36.4 °F 36.0 °F 82% 30.33 in 7.0 mi NNW 6.9 mph - N/A   Clear
8:53 AM 50.0 °F - 37.9 °F 63% 30.33 in 10.0 mi NNW 6.9 mph - N/A   Clear
9:53 AM 55.9 °F - 39.0 °F 53% 30.35 in 10.0 mi North 11.5 mph - N/A   Clear
10:53 AM 59.0 °F - 35.1 °F 41% 30.35 in 10.0 mi North 12.7 mph - N/A   Clear
11:53 AM 61.0 °F - 36.0 °F 39% 30.33 in 10.0 mi NNE 8.1 mph - N/A   Clear
12:53 PM 62.1 °F - 35.1 °F 37% 30.31 in 10.0 mi NE 11.5 mph 18.4 mph N/A   Clear
1:53 PM 64.0 °F - 30.9 °F 29% 30.30 in 10.0 mi NNE 10.4 mph - N/A   Clear
2:53 PM 64.9 °F - 30.0 °F 27% 30.28 in 10.0 mi NE 11.5 mph - N/A   Clear
3:53 PM 64.9 °F - 27.0 °F 24% 30.27 in 10.0 mi NNE 11.5 mph - N/A   Clear
4:53 PM 64.9 °F - 23.0 °F 20% 30.27 in 10.0 mi North 9.2 mph - N/A   Clear
5:53 PM 64.0 °F - 21.9 °F 20% 30.29 in 10.0 mi North 8.1 mph - N/A   Clear
6:53 PM 62.1 °F - 28.0 °F 28% 30.30 in 10.0 mi East 8.1 mph - N/A   Clear
7:53 PM 57.9 °F - 28.0 °F 32% 30.31 in 10.0 mi East 5.8 mph - N/A   Clear
8:53 PM 55.0 °F - 26.1 °F 33% 30.32 in 10.0 mi ENE 6.9 mph - N/A   Clear
9:53 PM 53.1 °F - 27.0 °F 37% 30.34 in 10.0 mi ENE 9.2 mph - N/A   Clear
10:53 PM 53.1 °F - 25.0 °F 34% 30.35 in 10.0 mi NE 8.1 mph - N/A   Clear
11:53 PM 52.0 °F - 24.1 °F 34% 30.35 in 10.0 mi NE 4.6 mph - N/A   Clear